Showing default

QIANFAN-70, 62800

Orbit data source: Space-Track

QIANFAN-70, 62800 is a Chinese payload satellite in LEO that was launched on Thu, 23 Jan 2025 UTC via a CHANG ZHENG 6A launch vehicle from the Taiyaun Space Center, China (TSC). Payload-class satellites include a variety of spacecraft equipped with specific instruments for various scientific and technological missions. These include communications satellites like Starlink; space stations such as the ISS; scientific satellites like the Hubble; Earth observation satellites from companies like Planet Labs, Umbra, and HawkEye 360; GPS; miniature CubeSats for education and research; and military/defense satellites.

Loading next visibility...
Identifier
62800, 2025-016R
Orbit
LEO
Country
Flag of CNCN / PRC
Related business
Manufacturer
SECM
Mission
Operational Commercial Communications
Bus & Motor
QIANFAN, Unknown motor
Mass
267 kg wet, ~267 kg dry
Launch date (UTC)
2025-01-23 (9 months ago)
Launch vehicle
CHANG ZHENG 6A
Launch site
Taiyaun Space Center, China (TSC)
Object type
Payload
Rocket body
Debris
Shape & HBR
Box + 1 Pan, 1.3 m
Radar Cross Section
13.200 m², Large (>1 m²)

Expand to show TLE details & history
Last TLE update: 1 day ago

TLE from 1 day ago
0 QIANFAN-70
1 62800U 25016R   25286.57358218 -.00000167  00000-0 -27734-3 0  9994
2 62800  88.9740 109.3259 0016257 144.3136 215.9105 13.50972411 39116
Epoch: 2025-10-13T13:45Z
TLE epoch observation values (Epoch: 2025-10-13T13:45:57.500Z)
Latitude
-0.00004°
Longitude
-119.5381°
Altitude
1,081.45 km
Speed
7.307 km/s
True Right ascension
07h 17m 18s
True Declination
0° 00' 00"
Sunlit
Object was in daylight at epoch
Visualization orbit readout
Latitude
Unknown
Longitude
Unknown
Altitude
Unknown
Speed
Unknown
Apparent Right ascension
Unknown
Apparent Declination
Unknown
Sunlit
N/A
Visualization observer readout
Local Sidereal Time
15:00:58
Azimuth
Unknown
Elevation
Unknown
Doppler factor
Unknown
Orbital elements
Apogee altitude
1,077.836 km
Perigee altitude
1,053.633 km
Semi-major axis
7,443.871 km
Eccentricity
0.00163
Inclination
88.974°
RAAN
109.3259°
Arg. of periapsis
144.3136°
True anomaly
215.80142°
Mean anomaly
215.9105°
Eccentric anomaly
215.85594°
Mean motion
3.37944 °/min
Orbital period
106.53 mins
BSTAR
-0.00027734
Loading maneuver chart data...
Computing Atmospheric mass density...
Loading historical data...
Loading historical data...
Loading historical data...
Loading historical data...
Loading historical data...
Loading historical data...
Loading historical data...

Documentation

Showing up to 5 results
|